| time (UTC) | temp F | wind direction | speed MPH | gust MPH | rain 1hr in | rain 24hr in | rain mn in | humidity % | barometer mb |
| 20260901003031 | 80 | 360 | 0.0 | 0.0 | 0.00 | 0.00 | 0.00 | 48 | 1005.9 |
| 20260901001524 | 80 | 360 | 0.0 | 1.0 | 0.00 | 0.00 | 0.00 | 45 | 1005.5 |
| 20260901000025 | 80 | 360 | 0.0 | 0.0 | 0.00 | 0.00 | 0.00 | 46 | 1005.9 |
| 20260831234523 | 80 | 360 | 0.0 | 1.0 | 0.00 | 0.00 | 0.00 | 47 | 1005.7 |
| 20260831233020 | 80 | 360 | 0.0 | 1.0 | 0.00 | 0.00 | 0.00 | 46 | 1005.7 |
| 20260831231518 | 80 | 360 | 0.0 | 1.0 | 0.00 | 0.00 | 0.00 | 45 | 1006.1 |
| 20260831230019 | 82 | 360 | 0.0 | 2.0 | 0.00 | 0.00 | 0.00 | 42 | 1006.4 |
| 20260831224514 | 84 | 360 | 0.0 | 2.0 | 0.00 | 0.00 | 0.00 | 40 | 1006.6 |
| 20260831223013 | 85 | 225 | 0.0 | 0.0 | 0.00 | 0.00 | 0.00 | 36 | 1006.9 |
| 20260831221511 | 86 | 225 | 0.0 | 1.0 | 0.00 | 0.00 | 0.00 | 35 | 1007.1 |
| 20260831220013 | 87 | 225 | 0.0 | 1.0 | 0.00 | 0.00 | 0.00 | 34 | 1007.0 |
| 20260831214519 | 87 | 225 | 0.0 | 1.0 | 0.00 | 0.00 | 0.00 | 36 | 1007.0 |
| 20260831213008 | 87 | 225 | 0.0 | 1.0 | 0.00 | 0.00 | 0.00 | 33 | 1007.1 |
| 20260831211512 | 87 | 225 | 0.0 | 1.0 | 0.00 | 0.00 | 0.00 | 31 | 1007.2 |
| 20260831210005 | 87 | 223 | 0.0 | 3.0 | 0.00 | 0.00 | 0.00 | 33 | 1007.4 |
| 20260831204507 | 87 | 213 | 0.0 | 4.0 | 0.00 | 0.00 | 0.00 | 30 | 1007.6 |
| 20260831203003 | 88 | 342 | 0.0 | 3.0 | 0.00 | 0.00 | 0.00 | 28 | 1007.5 |
| 20260831201503 | 88 | 278 | 1.0 | 7.0 | 0.00 | 0.00 | 0.00 | 27 | 1007.5 |
| 20260831200002 | 88 | 21 | 1.0 | 5.0 | 0.00 | 0.00 | 0.00 | 27 | 1007.6 |
| 20260831194504 | 89 | 208 | 1.0 | 6.0 | 0.00 | 0.00 | 0.00 | 27 | 1007.7 |
| 20260831193001 | 89 | 22 | 1.0 | 6.0 | 0.00 | 0.00 | 0.00 | 28 | 1007.6 |
| 20260831191558 | 88 | 32 | 0.0 | 2.0 | 0.00 | 0.00 | 0.00 | 34 | 1007.8 |
| 20260831190055 | 87 | 31 | 0.0 | 1.0 | 0.00 | 0.00 | 0.00 | 35 | 1008.0 |
| 20260831184551 | 85 | 31 | 0.0 | 1.0 | 0.00 | 0.00 | 0.00 | 38 | 1008.4 |
| 20260831183046 | 83 | 31 | 0.0 | 0.0 | 0.00 | 0.00 | 0.00 | 46 | 1008.7 |
| 20260831181548 | 81 | 31 | 0.0 | 0.0 | 0.00 | 0.00 | 0.00 | 43 | 1008.9 |
| 20260831180043 | 81 | 31 | 0.0 | 0.0 | 0.00 | 0.00 | 0.00 | 50 | 1009.2 |
| 20260831174537 | 80 | 31 | 0.0 | 1.0 | 0.00 | 0.00 | 0.00 | 45 | 1009.3 |
| 20260831173033 | 79 | 31 | 0.0 | 1.0 | 0.00 | 0.00 | 0.00 | 44 | 1009.4 |
| 20260831171531 | 78 | 31 | 0.0 | 2.0 | 0.00 | 0.00 | 0.00 | 45 | 1009.6 |
| 20260831170032 | 77 | 31 | 0.0 | 3.0 | 0.00 | 0.00 | 0.00 | 47 | 1009.6 |
| 20260831164528 | 76 | 31 | 0.0 | 2.0 | 0.00 | 0.00 | 0.00 | 48 | 1009.7 |
| 20260831163022 | 75 | 31 | 0.0 | 2.0 | 0.00 | 0.00 | 0.00 | 53 | 1009.7 |
| 20260831161520 | 74 | 31 | 0.0 | 3.0 | 0.00 | 0.00 | 0.00 | 54 | 1009.8 |
| 20260831160016 | 72 | 31 | 0.0 | 2.0 | 0.00 | 0.00 | 0.00 | 58 | 1009.8 |
| 20260831154509 | 71 | 31 | 1.0 | 3.0 | 0.00 | 0.00 | 0.00 | 62 | 1009.6 |
| 20260831153005 | 69 | 32 | 0.0 | 1.0 | 0.00 | 0.00 | 0.00 | 67 | 1009.8 |
| 20260831151507 | 67 | 32 | 0.0 | 2.0 | 0.00 | 0.00 | 0.00 | 67 | 1009.7 |
| 20260831150004 | 66 | 32 | 0.0 | 2.0 | 0.00 | 0.00 | 0.00 | 69 | 1009.4 |
| 20260831144504 | 65 | 31 | 0.0 | 2.0 | 0.00 | 0.00 | 0.00 | 69 | 1009.9 |
| 20260831143002 | 64 | 32 | 0.0 | 4.0 | 0.00 | 0.00 | 0.00 | 70 | 1009.8 |
| 20260831141501 | 63 | 34 | 1.0 | 5.0 | 0.00 | 0.00 | 0.00 | 73 | 1009.7 |
| 20260831134602 | 61 | 22 | 0.0 | 2.0 | 0.00 | 0.00 | 0.00 | 78 | 1009.7 |
| 20260831133057 | 60 | 22 | 0.0 | 2.0 | 0.00 | 0.00 | 0.00 | 79 | 1009.3 |
| 20260831131603 | 60 | 22 | 0.0 | 2.0 | 0.00 | 0.00 | 0.00 | 78 | 1009.3 |
| 20260831130057 | 60 | 20 | 1.0 | 3.0 | 0.00 | 0.00 | 0.00 | 78 | 1009.0 |
| 20260831124602 | 60 | 22 | 0.0 | 1.0 | 0.00 | 0.00 | 0.00 | 80 | 1008.8 |
| 20260831123054 | 60 | 22 | 0.0 | 0.0 | 0.00 | 0.00 | 0.00 | 82 | 1008.5 |
| 20260831121603 | 60 | 22 | 0.0 | 0.0 | 0.00 | 0.00 | 0.00 | 83 | 1008.6 |
| 20260831120051 | 60 | 22 | 0.0 | 0.0 | 0.00 | 0.00 | 0.00 | 80 | 1008.5 |
| 20260831114553 | 60 | 22 | 0.0 | 0.0 | 0.00 | 0.00 | 0.00 | 79 | 1008.3 |
| 20260831113048 | 61 | 22 | 0.0 | 0.0 | 0.00 | 0.00 | 0.00 | 78 | 1008.3 |
| 20260831111553 | 61 | 22 | 0.0 | 0.0 | 0.00 | 0.00 | 0.00 | 77 | 1008.2 |
| 20260831110057 | 61 | 21 | 0.0 | 0.0 | 0.00 | 0.00 | 0.00 | 75 | 1008.3 |
| 20260831104545 | 62 | 22 | 0.0 | 0.0 | 0.00 | 0.00 | 0.00 | 75 | 1008.4 |
| 20260831103043 | 62 | 22 | 0.0 | 0.0 | 0.00 | 0.00 | 0.00 | 74 | 1008.4 |
| 20260831094538 | 63 | 22 | 0.0 | 0.0 | 0.00 | 0.00 | 0.00 | 75 | 1008.1 |
| 20260831093031 | 63 | 22 | 0.0 | 0.0 | 0.00 | 0.00 | 0.00 | 73 | 1007.9 |
| 20260831091538 | 64 | 22 | 0.0 | 0.0 | 0.00 | 0.00 | 0.00 | 74 | 1007.7 |
| 20260831090024 | 64 | 22 | 0.0 | 0.0 | 0.00 | 0.00 | 0.00 | 71 | 1007.6 |
| 20260831084522 | 65 | 22 | 0.0 | 0.0 | 0.00 | 0.00 | 0.00 | 69 | 1007.6 |
| 20260831083019 | 66 | 22 | 0.0 | 1.0 | 0.00 | 0.00 | 0.00 | 67 | 1007.6 |
| 20260831081516 | 66 | 22 | 0.0 | 0.0 | 0.00 | 0.00 | 0.00 | 65 | 1007.6 |
| 20260831080014 | 67 | 22 | 0.0 | 2.0 | 0.00 | 0.00 | 0.00 | 64 | 1007.7 |
| 20260831074511 | 68 | 22 | 0.0 | 0.0 | 0.00 | 0.00 | 0.00 | 62 | 1008.2 |
| 20260831073009 | 69 | 22 | 0.0 | 0.0 | 0.00 | 0.00 | 0.00 | 61 | 1008.7 |
| 20260831071508 | 69 | 21 | 0.0 | 6.0 | 0.00 | 0.00 | 0.00 | 58 | 1008.9 |
| 20260831070006 | 68 | 34 | 1.0 | 4.0 | 0.00 | 0.00 | 0.00 | 59 | 1009.3 |
| 20260831064504 | 67 | 60 | 0.0 | 0.0 | 0.00 | 0.00 | 0.00 | 61 | 1009.2 |
| 20260831063100 | 68 | 60 | 0.0 | 1.0 | 0.00 | 0.00 | 0.00 | 63 | 1009.2 |
| 20260831061601 | 68 | 61 | 0.0 | 3.0 | 0.00 | 0.00 | 0.00 | 62 | 1008.9 |
| 20260831060057 | 68 | 60 | 0.0 | 0.0 | 0.00 | 0.00 | 0.00 | 61 | 1008.8 |
| 20260831054604 | 68 | 60 | 0.0 | 0.0 | 0.00 | 0.00 | 0.00 | 66 | 1009.1 |
| 20260831053056 | 68 | 60 | 0.0 | 1.0 | 0.00 | 0.00 | 0.00 | 61 | 1009.3 |
| 20260831051553 | 69 | 60 | 0.0 | 0.0 | 0.00 | 0.00 | 0.00 | 59 | 1009.5 |
| 20260831050055 | 69 | 60 | 0.0 | 0.0 | 0.00 | 0.00 | 0.00 | 59 | 1009.4 |
| 20260831044610 | 69 | 60 | 0.0 | 0.0 | 0.00 | 0.00 | 0.00 | 59 | 1009.2 |
| 20260831043050 | 69 | 60 | 0.0 | 0.0 | 0.00 | 0.00 | 0.00 | 58 | 1009.0 |
| 20260831041609 | 70 | 60 | 0.0 | 0.0 | 0.00 | 0.00 | 0.00 | 57 | 1008.7 |
| 20260831040048 | 71 | 60 | 0.0 | 0.0 | 0.00 | 0.00 | 0.00 | 57 | 1008.7 |
| 20260831034546 | 72 | 60 | 0.0 | 0.0 | 0.00 | 0.00 | 0.00 | 55 | 1008.6 |
| 20260831033044 | 73 | 60 | 0.0 | 0.0 | 0.00 | 0.00 | 0.00 | 54 | 1008.2 |
| 20260831031543 | 74 | 60 | 0.0 | 0.0 | 0.00 | 0.00 | 0.00 | 52 | 1008.3 |
| 20260831030048 | 74 | 60 | 0.0 | 1.0 | 0.00 | 0.00 | 0.00 | 49 | 1007.7 |
| 20260831024542 | 75 | 60 | 0.0 | 0.0 | 0.00 | 0.00 | 0.00 | 49 | 1007.0 |
| 20260831023035 | 76 | 60 | 0.0 | 2.0 | 0.00 | 0.00 | 0.00 | 47 | 1006.5 |
| 20260831021536 | 76 | 60 | 0.0 | 3.0 | 0.00 | 0.00 | 0.00 | 46 | 1006.1 |
| 20260831020034 | 76 | 60 | 0.0 | 4.0 | 0.00 | 0.00 | 0.00 | 45 | 1005.6 |
| 20260831014536 | 77 | 61 | 0.0 | 4.0 | 0.00 | 0.00 | 0.00 | 44 | 1005.1 |
| 20260831013034 | 77 | 44 | 1.0 | 3.0 | 0.00 | 0.00 | 0.00 | 44 | 1005.1 |
| 20260831011536 | 78 | 53 | 0.0 | 5.0 | 0.00 | 0.00 | 0.00 | 43 | 1004.8 |
| 20260831010031 | 78 | 67 | 1.0 | 8.0 | 0.00 | 0.00 | 0.00 | 43 | 1004.6 |
| 20260831004534 | 78 | 59 | 1.0 | 7.0 | 0.00 | 0.00 | 0.00 | 43 | 1004.8 |